Time,TemperatureF,DewpointF,PressureIn,WindDirection,WindDirectionDegrees,WindSpeedMPH,WindSpeedGustMPH,Humidity,HourlyPrecipIn,Conditions,Clouds,dailyrainin,SoftwareType,DateUTC
2013-01-18 00:00:00,40.7,14.9,30.19,North,0,0.0,0.0,35,0.00,,,0.00,WUHU216HW,2013-01-18 07:00:00,
2013-01-18 00:01:00,40.9,15.1,30.19,North,0,0.0,0.0,35,0.00,,,0.00,WUHU216HW,2013-01-18 07:01:00,
2013-01-18 00:03:00,40.9,15.1,30.19,North,0,0.0,0.0,35,0.00,,,0.00,WUHU216HW,2013-01-18 07:03:00,
2013-01-18 00:06:00,40.9,15.1,30.19,North,0,0.0,0.0,35,0.00,,,0.00,WUHU216HW,2013-01-18 07:06:00,
2013-01-18 00:07:00,40.9,15.1,30.19,North,0,0.0,0.0,35,0.00,,,0.00,WUHU216HW,2013-01-18 07:07:00,
2013-01-18 00:08:00,40.9,15.1,30.19,North,0,0.0,0.0,35,0.00,,,0.00,WUHU216HW,2013-01-18 07:08:00,
2013-01-18 00:09:00,41.0,15.3,30.19,North,0,0.0,0.0,35,0.00,,,0.00,WUHU216HW,2013-01-18 07:09:00,
2013-01-18 00:12:00,41.0,15.3,30.19,North,0,0.0,0.0,35,0.00,,,0.00,WUHU216HW,2013-01-18 07:12:00,
2013-01-18 00:13:00,41.0,15.3,30.19,North,0,0.0,0.0,35,0.00,,,0.00,WUHU216HW,2013-01-18 07:13:00,
2013-01-18 00:15:00,41.0,15.3,30.19,North,0,0.0,0.0,35,0.00,,,0.00,WUHU216HW,2013-01-18 07:15:00,
2013-01-18 00:17:00,41.0,15.3,30.19,North,0,0.0,0.0,35,0.00,,,0.00,WUHU216HW,2013-01-18 07:17:00,
2013-01-18 00:18:00,41.0,15.3,30.19,North,0,0.0,0.0,35,0.00,,,0.00,WUHU216HW,2013-01-18 07:18:00,
2013-01-18 00:20:00,41.0,15.3,30.19,North,0,0.0,0.0,35,0.00,,,0.00,WUHU216HW,2013-01-18 07:20:00,
2013-01-18 00:23:00,41.0,15.3,30.19,North,0,0.0,0.0,35,0.00,,,0.00,WUHU216HW,2013-01-18 07:23:00,
2013-01-18 00:24:00,41.0,15.3,30.19,North,0,0.0,0.0,35,0.00,,,0.00,WUHU216HW,2013-01-18 07:24:00,
2013-01-18 00:25:00,41.0,15.3,30.19,North,0,0.0,0.0,35,0.00,,,0.00,WUHU216HW,2013-01-18 07:25:00,
2013-01-18 00:28:00,41.0,15.3,30.19,North,0,0.0,0.0,35,0.00,,,0.00,WUHU216HW,2013-01-18 07:28:00,
2013-01-18 00:29:00,41.0,15.3,30.19,North,0,0.0,0.0,35,0.00,,,0.00,WUHU216HW,2013-01-18 07:29:00,
2013-01-18 00:30:00,41.0,15.3,30.19,North,0,0.0,0.0,35,0.00,,,0.00,WUHU216HW,2013-01-18 07:30:00,
2013-01-18 00:31:00,40.9,15.1,30.19,North,0,0.0,0.0,35,0.00,,,0.00,WUHU216HW,2013-01-18 07:31:00,
2013-01-18 00:33:00,40.7,14.9,30.19,North,0,0.0,0.0,35,0.00,,,0.00,WUHU216HW,2013-01-18 07:33:00,
2013-01-18 00:35:00,40.7,14.9,30.19,North,0,0.0,0.0,35,0.00,,,0.00,WUHU216HW,2013-01-18 07:35:00,
2013-01-18 00:36:00,40.5,15.5,30.19,North,0,0.0,0.0,36,0.00,,,0.00,WUHU216HW,2013-01-18 07:36:00,
2013-01-18 00:38:00,40.3,15.3,30.19,North,0,0.0,0.0,36,0.00,,,0.00,WUHU216HW,2013-01-18 07:38:00,
2013-01-18 00:40:00,40.1,15.1,30.19,North,0,0.0,0.0,36,0.00,,,0.00,WUHU216HW,2013-01-18 07:40:00,
2013-01-18 00:41:00,40.1,15.1,30.19,North,0,0.0,0.0,36,0.00,,,0.00,WUHU216HW,2013-01-18 07:41:00,
2013-01-18 00:43:00,40.0,14.9,30.19,North,0,0.0,0.0,36,0.00,,,0.00,WUHU216HW,2013-01-18 07:43:00,
2013-01-18 00:44:00,40.0,14.9,30.19,North,0,0.0,0.0,36,0.00,,,0.00,WUHU216HW,2013-01-18 07:44:00,
2013-01-18 00:46:00,40.0,14.9,30.19,North,0,0.0,0.0,36,0.00,,,0.00,WUHU216HW,2013-01-18 07:46:00,
2013-01-18 00:48:00,40.0,14.9,30.19,North,0,0.0,0.0,36,0.00,,,0.00,WUHU216HW,2013-01-18 07:48:00,
2013-01-18 00:50:00,39.6,14.7,30.19,North,0,0.0,0.0,36,0.00,,,0.00,WUHU216HW,2013-01-18 07:50:00,
2013-01-18 00:51:00,39.6,15.3,30.19,North,0,0.0,0.0,37,0.00,,,0.00,WUHU216HW,2013-01-18 07:51:00,
2013-01-18 00:52:00,39.4,14.5,30.19,North,0,0.0,0.0,36,0.00,,,0.00,WUHU216HW,2013-01-18 07:52:00,
2013-01-18 00:54:00,39.2,14.3,30.19,North,0,0.0,0.0,36,0.00,,,0.00,WUHU216HW,2013-01-18 07:54:00,
2013-01-18 00:56:00,39.1,14.9,30.19,North,0,0.0,0.0,37,0.00,,,0.00,WUHU216HW,2013-01-18 07:56:00,
2013-01-18 00:57:00,39.1,14.9,30.19,North,0,0.0,0.0,37,0.00,,,0.00,WUHU216HW,2013-01-18 07:57:00,
2013-01-18 00:59:00,38.9,14.7,30.19,North,0,0.0,0.0,37,0.00,,,0.00,WUHU216HW,2013-01-18 07:59:00,
2013-01-18 01:01:00,38.7,15.1,30.19,North,0,0.0,0.0,38,0.00,,,0.00,WUHU216HW,2013-01-18 08:01:00,
2013-01-18 01:02:00,38.7,15.1,30.19,North,0,0.0,0.0,38,0.00,,,0.00,WUHU216HW,2013-01-18 08:02:00,
2013-01-18 01:04:00,38.3,14.1,30.19,North,0,0.0,0.0,37,0.00,,,0.00,WUHU216HW,2013-01-18 08:04:00,
2013-01-18 01:05:00,38.3,14.1,30.19,North,0,0.0,0.0,37,0.00,,,0.00,WUHU216HW,2013-01-18 08:05:00,
2013-01-18 01:06:00,38.2,14.7,30.19,North,0,0.0,0.0,38,0.00,,,0.00,WUHU216HW,2013-01-18 08:06:00,
2013-01-18 01:07:00,38.2,14.7,30.19,North,0,0.0,0.0,38,0.00,,,0.00,WUHU216HW,2013-01-18 08:07:00,
2013-01-18 01:10:00,38.0,14.5,30.19,North,0,0.0,0.0,38,0.00,,,0.00,WUHU216HW,2013-01-18 08:10:00,
2013-01-18 01:11:00,38.0,14.5,30.19,North,0,0.0,0.0,38,0.00,,,0.00,WUHU216HW,2013-01-18 08:11:00,
2013-01-18 01:14:00,38.0,14.5,30.19,North,0,0.0,0.0,38,0.00,,,0.00,WUHU216HW,2013-01-18 08:14:00,
2013-01-18 01:15:00,38.0,14.5,30.19,North,0,0.0,0.0,38,0.00,,,0.00,WUHU216HW,2013-01-18 08:15:00,
2013-01-18 01:16:00,38.0,14.5,30.19,North,0,0.0,0.0,38,0.00,,,0.00,WUHU216HW,2013-01-18 08:16:00,
2013-01-18 01:17:00,37.8,14.3,30.19,North,0,0.0,0.0,38,0.00,,,0.00,WUHU216HW,2013-01-18 08:17:00,
2013-01-18 01:19:00,38.0,14.5,30.19,North,0,0.0,0.0,38,0.00,,,0.00,WUHU216HW,2013-01-18 08:19:00,
2013-01-18 01:21:00,38.0,14.5,30.19,North,0,0.0,0.0,38,0.00,,,0.00,WUHU216HW,2013-01-18 08:21:00,
2013-01-18 01:22:00,38.0,14.5,30.19,North,0,0.0,0.0,38,0.00,,,0.00,WUHU216HW,2013-01-18 08:22:00,
2013-01-18 01:24:00,38.0,14.5,30.19,North,0,0.0,0.0,38,0.00,,,0.00,WUHU216HW,2013-01-18 08:24:00,
2013-01-18 01:27:00,38.0,14.5,30.19,North,0,0.0,0.0,38,0.00,,,0.00,WUHU216HW,2013-01-18 08:27:00,
2013-01-18 01:30:00,38.0,14.5,30.19,North,0,0.0,0.0,38,0.00,,,0.00,WUHU216HW,2013-01-18 08:30:00,
2013-01-18 01:32:00,38.0,14.5,30.19,North,0,0.0,0.0,38,0.00,,,0.00,WUHU216HW,2013-01-18 08:32:00,
2013-01-18 01:33:00,38.0,14.5,30.19,North,0,0.0,0.0,38,0.00,,,0.00,WUHU216HW,2013-01-18 08:33:00,
2013-01-18 01:36:00,38.0,14.5,30.19,North,0,0.0,0.0,38,0.00,,,0.00,WUHU216HW,2013-01-18 08:36:00,
2013-01-18 01:38:00,38.2,14.7,30.19,North,0,0.0,0.0,38,0.00,,,0.00,WUHU216HW,2013-01-18 08:38:00,
2013-01-18 01:39:00,38.2,14.7,30.19,North,0,0.0,0.0,38,0.00,,,0.00,WUHU216HW,2013-01-18 08:39:00,
2013-01-18 01:41:00,38.3,15.5,30.19,North,0,0.0,0.0,39,0.00,,,0.00,WUHU216HW,2013-01-18 08:41:00,
2013-01-18 01:43:00,38.5,14.9,30.19,North,0,0.0,0.0,38,0.00,,,0.00,WUHU216HW,2013-01-18 08:43:00,
2013-01-18 01:44:00,38.5,14.9,30.19,North,0,0.0,0.0,38,0.00,,,0.00,WUHU216HW,2013-01-18 08:44:00,
2013-01-18 01:47:00,38.7,15.1,30.19,North,0,0.0,0.0,38,0.00,,,0.00,WUHU216HW,2013-01-18 08:47:00,
2013-01-18 01:48:00,38.7,15.1,30.19,North,0,0.0,0.0,38,0.00,,,0.00,WUHU216HW,2013-01-18 08:48:00,
2013-01-18 01:49:00,38.7,15.1,30.19,North,0,0.0,0.0,38,0.00,,,0.00,WUHU216HW,2013-01-18 08:49:00,
2013-01-18 01:53:00,38.7,15.1,30.19,North,0,0.0,0.0,38,0.00,,,0.00,WUHU216HW,2013-01-18 08:53:00,
2013-01-18 01:54:00,38.5,14.9,30.19,North,0,0.0,0.0,38,0.00,,,0.00,WUHU216HW,2013-01-18 08:54:00,
2013-01-18 01:55:00,38.7,15.1,30.19,North,0,0.0,0.0,38,0.00,,,0.00,WUHU216HW,2013-01-18 08:55:00,
2013-01-18 01:58:00,38.3,14.9,30.19,North,0,0.0,0.0,38,0.00,,,0.00,WUHU216HW,2013-01-18 08:58:00,
2013-01-18 02:00:00,38.2,14.7,30.19,North,0,0.0,0.0,38,0.00,,,0.00,WUHU216HW,2013-01-18 09:00:00,
2013-01-18 02:01:00,38.0,14.5,30.19,North,0,0.0,0.0,38,0.00,,,0.00,WUHU216HW,2013-01-18 09:01:00,
2013-01-18 02:03:00,37.8,14.3,30.19,North,0,0.0,0.0,38,0.00,,,0.00,WUHU216HW,2013-01-18 09:03:00,
2013-01-18 02:05:00,37.8,14.3,30.19,North,0,0.0,0.0,38,0.00,,,0.00,WUHU216HW,2013-01-18 09:05:00,
2013-01-18 02:06:00,37.8,14.3,30.19,North,0,0.0,0.0,38,0.00,,,0.00,WUHU216HW,2013-01-18 09:06:00,
2013-01-18 02:09:00,37.8,14.3,30.19,North,0,0.0,0.0,38,0.00,,,0.00,WUHU216HW,2013-01-18 09:09:00,
2013-01-18 02:10:00,37.8,14.3,30.19,North,0,0.0,0.0,38,0.00,,,0.00,WUHU216HW,2013-01-18 09:10:00,
2013-01-18 02:11:00,37.8,14.3,30.19,North,0,0.0,0.0,38,0.00,,,0.00,WUHU216HW,2013-01-18 09:11:00,
2013-01-18 02:14:00,37.6,14.1,30.19,North,0,0.0,0.0,38,0.00,,,0.00,WUHU216HW,2013-01-18 09:14:00,
2013-01-18 02:15:00,37.6,14.1,30.19,North,0,0.0,0.0,38,0.00,,,0.00,WUHU216HW,2013-01-18 09:15:00,
2013-01-18 02:16:00,37.6,14.1,30.19,North,0,0.0,0.0,38,0.00,,,0.00,WUHU216HW,2013-01-18 09:16:00,
2013-01-18 02:17:00,37.4,14.1,30.19,North,0,0.0,0.0,38,0.00,,,0.00,WUHU216HW,2013-01-18 09:17:00,
2013-01-18 02:21:00,37.3,13.9,30.19,North,0,0.0,0.0,38,0.00,,,0.00,WUHU216HW,2013-01-18 09:21:00,
2013-01-18 02:22:00,37.3,14.5,30.19,North,0,0.0,0.0,39,0.00,,,0.00,WUHU216HW,2013-01-18 09:22:00,
2013-01-18 02:26:00,37.1,14.3,30.19,North,0,0.0,0.0,39,0.00,,,0.00,WUHU216HW,2013-01-18 09:26:00,
2013-01-18 02:27:00,37.1,14.3,30.19,North,0,0.0,0.0,39,0.00,,,0.00,WUHU216HW,2013-01-18 09:27:00,
2013-01-18 02:31:00,36.7,14.1,30.19,North,0,0.0,0.0,39,0.00,,,0.00,WUHU216HW,2013-01-18 09:31:00,
2013-01-18 02:32:00,36.7,14.1,30.19,North,0,0.0,0.0,39,0.00,,,0.00,WUHU216HW,2013-01-18 09:32:00,
2013-01-18 02:33:00,36.7,14.1,30.19,North,0,0.0,0.0,39,0.00,,,0.00,WUHU216HW,2013-01-18 09:33:00,
2013-01-18 02:36:00,36.5,14.5,30.19,North,0,0.0,0.0,40,0.00,,,0.00,WUHU216HW,2013-01-18 09:36:00,
2013-01-18 02:37:00,36.5,14.5,30.19,North,0,0.0,0.0,40,0.00,,,0.00,WUHU216HW,2013-01-18 09:37:00,
2013-01-18 02:38:00,36.4,14.3,30.19,North,0,0.0,0.0,40,0.00,,,0.00,WUHU216HW,2013-01-18 09:38:00,
2013-01-18 02:42:00,36.4,14.3,30.19,North,0,0.0,0.0,40,0.00,,,0.00,WUHU216HW,2013-01-18 09:42:00,
2013-01-18 02:43:00,36.4,14.3,30.19,North,0,0.0,0.0,40,0.00,,,0.00,WUHU216HW,2013-01-18 09:43:00,
2013-01-18 02:45:00,36.2,14.7,30.19,North,0,0.0,0.0,41,0.00,,,0.00,WUHU216HW,2013-01-18 09:45:00,
2013-01-18 02:47:00,36.0,14.5,30.19,North,0,0.0,0.0,41,0.00,,,0.00,WUHU216HW,2013-01-18 09:47:00,
2013-01-18 02:48:00,36.0,14.5,30.19,North,0,0.0,0.0,41,0.00,,,0.00,WUHU216HW,2013-01-18 09:48:00,
2013-01-18 02:50:00,36.0,14.5,30.19,North,0,0.0,0.0,41,0.00,,,0.00,WUHU216HW,2013-01-18 09:50:00,
2013-01-18 02:53:00,35.8,14.4,30.19,North,0,0.0,0.0,41,0.00,,,0.00,WUHU216HW,2013-01-18 09:53:00,
2013-01-18 02:54:00,35.8,14.4,30.19,North,0,0.0,0.0,41,0.00,,,0.00,WUHU216HW,2013-01-18 09:54:00,
2013-01-18 02:55:00,35.8,14.9,30.19,North,0,0.0,0.0,42,0.00,,,0.00,WUHU216HW,2013-01-18 09:55:00,
2013-01-18 02:58:00,35.6,14.8,30.19,North,0,0.0,0.0,42,0.00,,,0.00,WUHU216HW,2013-01-18 09:58:00,
2013-01-18 02:59:00,35.8,14.9,30.19,North,0,0.0,0.0,42,0.00,,,0.00,WUHU216HW,2013-01-18 09:59:00,
2013-01-18 03:00:00,35.8,14.9,30.19,North,0,0.0,0.0,42,0.00,,,0.00,WUHU216HW,2013-01-18 10:00:00,
2013-01-18 03:03:00,35.8,14.9,30.19,North,0,0.0,0.0,42,0.00,,,0.00,WUHU216HW,2013-01-18 10:03:00,
2013-01-18 03:05:00,35.8,14.9,30.19,North,0,0.0,0.0,42,0.00,,,0.00,WUHU216HW,2013-01-18 10:05:00,
2013-01-18 03:06:00,35.8,14.9,30.19,North,0,0.0,0.0,42,0.00,,,0.00,WUHU216HW,2013-01-18 10:06:00,
2013-01-18 03:09:00,35.8,14.9,30.19,North,0,0.0,0.0,42,0.00,,,0.00,WUHU216HW,2013-01-18 10:09:00,
2013-01-18 03:10:00,35.8,14.9,30.19,North,0,0.0,0.0,42,0.00,,,0.00,WUHU216HW,2013-01-18 10:10:00,
2013-01-18 03:12:00,35.8,14.9,30.19,North,0,0.0,0.0,42,0.00,,,0.00,WUHU216HW,2013-01-18 10:12:00,
2013-01-18 03:15:00,36.0,14.5,30.19,North,0,0.0,0.0,41,0.00,,,0.00,WUHU216HW,2013-01-18 10:15:00,
2013-01-18 03:16:00,35.8,14.4,30.19,North,0,0.0,0.0,41,0.00,,,0.00,WUHU216HW,2013-01-18 10:16:00,
2013-01-18 03:17:00,36.0,14.5,30.18,North,0,0.0,0.0,41,0.00,,,0.00,WUHU216HW,2013-01-18 10:17:00,
2013-01-18 03:21:00,35.8,14.4,30.19,North,0,0.0,0.0,41,0.00,,,0.00,WUHU216HW,2013-01-18 10:21:00,
2013-01-18 03:22:00,35.8,14.9,30.18,North,0,0.0,0.0,42,0.00,,,0.00,WUHU216HW,2013-01-18 10:22:00,
2013-01-18 03:23:00,35.8,14.9,30.19,North,0,0.0,0.0,42,0.00,,,0.00,WUHU216HW,2013-01-18 10:23:00,
2013-01-18 03:27:00,35.6,14.2,30.18,North,0,0.0,0.0,41,0.00,,,0.00,WUHU216HW,2013-01-18 10:27:00,
2013-01-18 03:28:00,35.6,14.2,30.18,North,0,0.0,0.0,41,0.00,,,0.00,WUHU216HW,2013-01-18 10:28:00,
2013-01-18 03:29:00,35.6,14.2,30.18,North,0,0.0,0.0,41,0.00,,,0.00,WUHU216HW,2013-01-18 10:29:00,
2013-01-18 03:32:00,35.5,14.1,30.18,North,0,0.0,0.0,41,0.00,,,0.00,WUHU216HW,2013-01-18 10:32:00,
2013-01-18 03:33:00,35.5,14.1,30.18,North,0,0.0,0.0,41,0.00,,,0.00,WUHU216HW,2013-01-18 10:33:00,
2013-01-18 03:34:00,35.5,14.1,30.18,North,0,0.0,0.0,41,0.00,,,0.00,WUHU216HW,2013-01-18 10:34:00,
2013-01-18 03:38:00,35.3,14.4,30.18,North,0,0.0,0.0,42,0.00,,,0.00,WUHU216HW,2013-01-18 10:38:00,
2013-01-18 03:39:00,35.3,14.4,30.18,North,0,0.0,0.0,42,0.00,,,0.00,WUHU216HW,2013-01-18 10:39:00,
2013-01-18 03:40:00,35.3,14.4,30.18,North,0,0.0,0.0,42,0.00,,,0.00,WUHU216HW,2013-01-18 10:40:00,
2013-01-18 03:43:00,34.9,14.0,30.18,North,0,0.0,0.0,42,0.00,,,0.00,WUHU216HW,2013-01-18 10:43:00,
2013-01-18 03:45:00,34.9,14.0,30.18,North,0,0.0,0.0,42,0.00,,,0.00,WUHU216HW,2013-01-18 10:45:00,
2013-01-18 03:46:00,34.9,14.0,30.18,North,0,0.0,0.0,42,0.00,,,0.00,WUHU216HW,2013-01-18 10:46:00,
2013-01-18 03:50:00,34.9,14.0,30.18,North,0,0.0,0.0,42,0.00,,,0.00,WUHU216HW,2013-01-18 10:50:00,
2013-01-18 03:51:00,34.7,13.9,30.18,North,0,0.0,0.0,42,0.00,,,0.00,WUHU216HW,2013-01-18 10:51:00,
2013-01-18 03:55:00,34.6,13.8,30.18,North,0,0.0,0.0,42,0.00,,,0.00,WUHU216HW,2013-01-18 10:55:00,
2013-01-18 03:56:00,34.6,13.8,30.18,North,0,0.0,0.0,42,0.00,,,0.00,WUHU216HW,2013-01-18 10:56:00,
2013-01-18 03:57:00,34.6,14.2,30.18,North,0,0.0,0.0,43,0.00,,,0.00,WUHU216HW,2013-01-18 10:57:00,
2013-01-18 04:01:00,34.6,14.2,30.18,North,0,0.0,0.0,43,0.00,,,0.00,WUHU216HW,2013-01-18 11:01:00,
2013-01-18 04:02:00,34.6,14.2,30.18,North,0,0.0,0.0,43,0.00,,,0.00,WUHU216HW,2013-01-18 11:02:00,
2013-01-18 04:03:00,34.6,14.2,30.18,North,0,0.0,0.0,43,0.00,,,0.00,WUHU216HW,2013-01-18 11:03:00,
2013-01-18 04:06:00,34.6,14.2,30.18,North,0,0.0,0.0,43,0.00,,,0.00,WUHU216HW,2013-01-18 11:06:00,
2013-01-18 04:07:00,34.6,14.2,30.18,North,0,0.0,0.0,43,0.00,,,0.00,WUHU216HW,2013-01-18 11:07:00,
2013-01-18 04:08:00,34.4,14.0,30.18,North,0,0.0,0.0,43,0.00,,,0.00,WUHU216HW,2013-01-18 11:08:00,
2013-01-18 04:11:00,34.4,14.0,30.18,North,0,0.0,0.0,43,0.00,,,0.00,WUHU216HW,2013-01-18 11:11:00,
2013-01-18 04:13:00,34.4,14.0,30.18,North,0,0.0,0.0,43,0.00,,,0.00,WUHU216HW,2013-01-18 11:13:00,
2013-01-18 04:18:00,34.2,14.0,30.17,North,0,0.0,0.0,43,0.00,,,0.00,WUHU216HW,2013-01-18 11:18:00,
2013-01-18 04:19:00,34.2,14.0,30.17,North,0,0.0,0.0,43,0.00,,,0.00,WUHU216HW,2013-01-18 11:19:00,
2013-01-18 04:23:00,34.0,13.8,30.17,North,0,0.0,0.0,43,0.00,,,0.00,WUHU216HW,2013-01-18 11:23:00,
2013-01-18 04:24:00,34.0,13.8,30.17,North,0,0.0,0.0,43,0.00,,,0.00,WUHU216HW,2013-01-18 11:24:00,
2013-01-18 04:28:00,33.8,14.0,30.17,North,0,0.0,0.0,44,0.00,,,0.00,WUHU216HW,2013-01-18 11:28:00,
2013-01-18 04:29:00,33.8,14.0,30.17,North,0,0.0,0.0,44,0.00,,,0.00,WUHU216HW,2013-01-18 11:29:00,
2013-01-18 04:30:00,33.7,14.0,30.17,North,0,0.0,0.0,44,0.00,,,0.00,WUHU216HW,2013-01-18 11:30:00,
2013-01-18 04:34:00,33.7,14.0,30.17,North,0,0.0,0.0,44,0.00,,,0.00,WUHU216HW,2013-01-18 11:34:00,
2013-01-18 04:35:00,33.5,13.8,30.17,North,0,0.0,0.0,44,0.00,,,0.00,WUHU216HW,2013-01-18 11:35:00,
2013-01-18 04:36:00,33.5,13.8,30.17,North,0,0.0,0.0,44,0.00,,,0.00,WUHU216HW,2013-01-18 11:36:00,
2013-01-18 04:39:00,33.5,13.8,30.17,North,0,0.0,0.0,44,0.00,,,0.00,WUHU216HW,2013-01-18 11:39:00,
2013-01-18 04:40:00,33.5,13.8,30.17,North,0,0.0,0.0,44,0.00,,,0.00,WUHU216HW,2013-01-18 11:40:00,
2013-01-18 04:41:00,33.5,13.8,30.17,North,0,0.0,0.0,44,0.00,,,0.00,WUHU216HW,2013-01-18 11:41:00,
2013-01-18 04:45:00,33.3,14.1,30.17,North,0,0.0,0.0,45,0.00,,,0.00,WUHU216HW,2013-01-18 11:45:00,
2013-01-18 04:46:00,33.3,13.6,30.17,North,0,0.0,0.0,44,0.00,,,0.00,WUHU216HW,2013-01-18 11:46:00,
2013-01-18 04:51:00,33.1,13.4,30.17,North,0,0.0,0.0,44,0.00,,,0.00,WUHU216HW,2013-01-18 11:51:00,
2013-01-18 04:52:00,33.1,14.0,30.17,North,0,0.0,0.0,45,0.00,,,0.00,WUHU216HW,2013-01-18 11:52:00,
2013-01-18 04:56:00,33.1,14.0,30.17,North,0,0.0,0.0,45,0.00,,,0.00,WUHU216HW,2013-01-18 11:56:00,
2013-01-18 04:57:00,33.1,14.0,30.17,North,0,0.0,0.0,45,0.00,,,0.00,WUHU216HW,2013-01-18 11:57:00,
2013-01-18 05:02:00,32.9,13.8,30.17,North,0,0.0,0.0,45,0.00,,,0.00,WUHU216HW,2013-01-18 12:02:00,
2013-01-18 05:07:00,32.9,13.8,30.17,North,0,0.0,0.0,45,0.00,,,0.00,WUHU216HW,2013-01-18 12:07:00,
2013-01-18 05:08:00,32.9,13.8,30.17,North,0,0.0,0.0,45,0.00,,,0.00,WUHU216HW,2013-01-18 12:08:00,
2013-01-18 05:12:00,32.8,13.6,30.17,North,0,0.0,0.0,45,0.00,,,0.00,WUHU216HW,2013-01-18 12:12:00,
2013-01-18 05:13:00,32.8,13.6,30.17,North,0,0.0,0.0,45,0.00,,,0.00,WUHU216HW,2013-01-18 12:13:00,
2013-01-18 05:14:00,32.8,13.6,30.17,North,0,0.0,0.0,45,0.00,,,0.00,WUHU216HW,2013-01-18 12:14:00,
2013-01-18 05:18:00,32.8,13.6,30.17,North,0,0.0,0.0,45,0.00,,,0.00,WUHU216HW,2013-01-18 12:18:00,
2013-01-18 05:19:00,32.8,13.6,30.17,North,0,0.0,0.0,45,0.00,,,0.00,WUHU216HW,2013-01-18 12:19:00,
2013-01-18 05:22:00,32.8,14.1,30.17,North,0,0.0,0.0,46,0.00,,,0.00,WUHU216HW,2013-01-18 12:22:00,
2013-01-18 05:24:00,32.8,14.1,30.17,North,0,0.0,0.0,46,0.00,,,0.00,WUHU216HW,2013-01-18 12:24:00,
2013-01-18 05:25:00,32.8,14.1,30.17,North,0,0.0,0.0,46,0.00,,,0.00,WUHU216HW,2013-01-18 12:25:00,
2013-01-18 05:28:00,32.8,14.1,30.17,North,0,0.0,0.0,46,0.00,,,0.00,WUHU216HW,2013-01-18 12:28:00,
2013-01-18 05:29:00,32.8,14.1,30.17,North,0,0.0,0.0,46,0.00,,,0.00,WUHU216HW,2013-01-18 12:29:00,
2013-01-18 05:30:00,32.6,14.0,30.17,North,0,0.0,0.0,46,0.00,,,0.00,WUHU216HW,2013-01-18 12:30:00,
2013-01-18 05:33:00,32.6,14.0,30.18,North,0,0.0,0.0,46,0.00,,,0.00,WUHU216HW,2013-01-18 12:33:00,
2013-01-18 05:34:00,32.6,14.0,30.17,North,0,0.0,0.0,46,0.00,,,0.00,WUHU216HW,2013-01-18 12:34:00,
2013-01-18 05:35:00,32.6,14.0,30.18,North,0,0.0,0.0,46,0.00,,,0.00,WUHU216HW,2013-01-18 12:35:00,
2013-01-18 05:38:00,32.6,14.0,30.18,North,0,0.0,0.0,46,0.00,,,0.00,WUHU216HW,2013-01-18 12:38:00,
2013-01-18 05:40:00,32.6,14.0,30.17,North,0,0.0,0.0,46,0.00,,,0.00,WUHU216HW,2013-01-18 12:40:00,
2013-01-18 05:41:00,32.4,13.8,30.18,North,0,0.0,0.0,46,0.00,,,0.00,WUHU216HW,2013-01-18 12:41:00,
2013-01-18 05:44:00,32.4,14.3,30.17,North,0,0.0,0.0,47,0.00,,,0.00,WUHU216HW,2013-01-18 12:44:00,
2013-01-18 05:45:00,32.4,14.3,30.18,North,0,0.0,0.0,47,0.00,,,0.00,WUHU216HW,2013-01-18 12:45:00,
2013-01-18 05:47:00,32.2,14.1,30.17,North,0,0.0,0.0,47,0.00,,,0.00,WUHU216HW,2013-01-18 12:47:00,
2013-01-18 05:49:00,32.2,14.1,30.17,North,0,0.0,0.0,47,0.00,,,0.00,WUHU216HW,2013-01-18 12:49:00,
2013-01-18 05:50:00,32.2,14.1,30.18,North,0,0.0,0.0,47,0.00,,,0.00,WUHU216HW,2013-01-18 12:50:00,
2013-01-18 05:51:00,32.2,14.7,30.18,North,0,0.0,0.0,48,0.00,,,0.00,WUHU216HW,2013-01-18 12:51:00,
2013-01-18 05:52:00,32.2,14.7,30.17,North,0,0.0,0.0,48,0.00,,,0.00,WUHU216HW,2013-01-18 12:52:00,
2013-01-18 05:54:00,32.0,14.0,30.17,North,0,0.0,0.0,47,0.00,,,0.00,WUHU216HW,2013-01-18 12:54:00,
2013-01-18 05:55:00,32.0,14.5,30.18,North,0,0.0,0.0,48,0.00,,,0.00,WUHU216HW,2013-01-18 12:55:00,
2013-01-18 05:56:00,32.2,14.1,30.18,North,0,0.0,0.0,47,0.00,,,0.00,WUHU216HW,2013-01-18 12:56:00,
2013-01-18 05:57:00,32.0,14.5,30.17,North,0,0.0,0.0,48,0.00,,,0.00,WUHU216HW,2013-01-18 12:57:00,
2013-01-18 06:00:00,32.2,14.1,30.18,North,0,0.0,0.0,47,0.00,,,0.00,WUHU216HW,2013-01-18 13:00:00,
2013-01-18 06:01:00,32.0,14.0,30.18,North,0,0.0,0.0,47,0.00,,,0.00,WUHU216HW,2013-01-18 13:01:00,
2013-01-18 06:02:00,32.2,14.1,30.18,North,0,0.0,0.0,47,0.00,,,0.00,WUHU216HW,2013-01-18 13:02:00,
2013-01-18 06:03:00,32.2,14.1,30.18,North,0,0.0,0.0,47,0.00,,,0.00,WUHU216HW,2013-01-18 13:03:00,
2013-01-18 06:05:00,32.2,14.1,30.18,North,0,0.0,0.0,47,0.00,,,0.00,WUHU216HW,2013-01-18 13:05:00,
2013-01-18 06:07:00,32.2,14.7,30.18,North,0,0.0,0.0,48,0.00,,,0.00,WUHU216HW,2013-01-18 13:07:00,
2013-01-18 06:09:00,32.0,14.5,30.18,North,0,0.0,0.0,48,0.00,,,0.00,WUHU216HW,2013-01-18 13:09:00,
2013-01-18 06:10:00,32.0,14.5,30.18,North,0,0.0,0.0,48,0.00,,,0.00,WUHU216HW,2013-01-18 13:10:00,
2013-01-18 06:12:00,32.0,14.5,30.18,North,0,0.0,0.0,48,0.00,,,0.00,WUHU216HW,2013-01-18 13:12:00,
2013-01-18 06:14:00,32.2,14.7,30.18,North,0,0.0,0.0,48,0.00,,,0.00,WUHU216HW,2013-01-18 13:14:00,
2013-01-18 06:15:00,32.2,14.7,30.18,North,0,0.0,0.0,48,0.00,,,0.00,WUHU216HW,2013-01-18 13:15:00,
2013-01-18 06:18:00,32.2,14.1,30.18,North,0,0.0,0.0,47,0.00,,,0.00,WUHU216HW,2013-01-18 13:18:00,
2013-01-18 06:20:00,32.4,14.3,30.18,North,0,0.0,0.0,47,0.00,,,0.00,WUHU216HW,2013-01-18 13:20:00,
2013-01-18 06:21:00,32.4,14.3,30.18,North,0,0.0,0.0,47,0.00,,,0.00,WUHU216HW,2013-01-18 13:21:00,
2013-01-18 06:23:00,32.4,14.3,30.18,North,0,0.0,0.0,47,0.00,,,0.00,WUHU216HW,2013-01-18 13:23:00,
2013-01-18 06:24:00,32.4,14.3,30.18,North,0,0.0,0.0,47,0.00,,,0.00,WUHU216HW,2013-01-18 13:24:00,
2013-01-18 06:26:00,32.4,14.3,30.18,North,0,0.0,0.0,47,0.00,,,0.00,WUHU216HW,2013-01-18 13:26:00,
2013-01-18 06:28:00,32.2,14.1,30.18,North,0,0.0,0.0,47,0.00,,,0.00,WUHU216HW,2013-01-18 13:28:00,
2013-01-18 06:29:00,32.2,14.1,30.18,North,0,0.0,0.0,47,0.00,,,0.00,WUHU216HW,2013-01-18 13:29:00,
2013-01-18 06:31:00,32.0,14.0,30.18,North,0,0.0,0.0,47,0.00,,,0.00,WUHU216HW,2013-01-18 13:31:00,
2013-01-18 06:32:00,32.0,14.5,30.18,North,0,0.0,0.0,48,0.00,,,0.00,WUHU216HW,2013-01-18 13:32:00,
2013-01-18 06:34:00,32.0,14.5,30.18,North,0,0.0,0.0,48,0.00,,,0.00,WUHU216HW,2013-01-18 13:34:00,
2013-01-18 06:36:00,31.9,14.3,30.18,North,0,0.0,0.0,48,0.00,,,0.00,WUHU216HW,2013-01-18 13:36:00,
2013-01-18 06:37:00,31.9,14.3,30.18,North,0,0.0,0.0,48,0.00,,,0.00,WUHU216HW,2013-01-18 13:37:00,
2013-01-18 06:40:00,31.9,14.3,30.19,North,0,0.0,0.0,48,0.00,,,0.00,WUHU216HW,2013-01-18 13:40:00,
2013-01-18 06:41:00,31.9,14.3,30.19,North,0,0.0,0.0,48,0.00,,,0.00,WUHU216HW,2013-01-18 13:41:00,
2013-01-18 06:43:00,31.9,14.3,30.19,North,0,0.0,0.0,48,0.00,,,0.00,WUHU216HW,2013-01-18 13:43:00,
2013-01-18 06:46:00,31.7,14.1,30.19,North,0,0.0,0.0,48,0.00,,,0.00,WUHU216HW,2013-01-18 13:46:00,
2013-01-18 06:47:00,31.7,14.7,30.19,North,0,0.0,0.0,49,0.00,,,0.00,WUHU216HW,2013-01-18 13:47:00,
2013-01-18 06:48:00,31.7,14.7,30.19,North,0,0.0,0.0,49,0.00,,,0.00,WUHU216HW,2013-01-18 13:48:00,
2013-01-18 06:51:00,31.7,14.7,30.19,North,0,0.0,0.0,49,0.00,,,0.00,WUHU216HW,2013-01-18 13:51:00,
2013-01-18 06:52:00,31.7,14.7,30.19,North,0,0.0,0.0,49,0.00,,,0.00,WUHU216HW,2013-01-18 13:52:00,
2013-01-18 06:53:00,31.7,14.7,30.19,North,0,0.0,0.0,49,0.00,,,0.00,WUHU216HW,2013-01-18 13:53:00,
2013-01-18 06:56:00,31.7,14.7,30.19,North,0,0.0,0.0,49,0.00,,,0.00,WUHU216HW,2013-01-18 13:56:00,
2013-01-18 06:57:00,31.7,14.7,30.19,North,0,0.0,0.0,49,0.00,,,0.00,WUHU216HW,2013-01-18 13:57:00,
2013-01-18 06:59:00,31.5,14.5,30.19,North,0,0.0,0.0,49,0.00,,,0.00,WUHU216HW,2013-01-18 13:59:00,
2013-01-18 07:01:00,31.5,14.5,30.19,North,0,0.0,0.0,49,0.00,,,0.00,WUHU216HW,2013-01-18 14:01:00,
2013-01-18 07:02:00,31.5,14.5,30.19,North,0,0.0,0.0,49,0.00,,,0.00,WUHU216HW,2013-01-18 14:02:00,
2013-01-18 07:04:00,31.5,14.5,30.19,North,0,0.0,0.0,49,0.00,,,0.00,WUHU216HW,2013-01-18 14:04:00,
2013-01-18 07:07:00,31.3,14.3,30.19,North,0,0.0,0.0,49,0.00,,,0.00,WUHU216HW,2013-01-18 14:07:00,
2013-01-18 07:09:00,31.3,14.3,30.19,North,0,0.0,0.0,49,0.00,,,0.00,WUHU216HW,2013-01-18 14:09:00,
2013-01-18 07:13:00,31.3,14.3,30.19,North,0,0.0,0.0,49,0.00,,,0.00,WUHU216HW,2013-01-18 14:13:00,
2013-01-18 07:14:00,31.3,14.3,30.19,North,0,0.0,0.0,49,0.00,,,0.00,WUHU216HW,2013-01-18 14:14:00,
2013-01-18 07:18:00,31.3,14.3,30.19,North,0,0.0,0.0,49,0.00,,,0.00,WUHU216HW,2013-01-18 14:18:00,
2013-01-18 07:19:00,31.3,14.3,30.19,North,0,0.0,0.0,49,0.00,,,0.00,WUHU216HW,2013-01-18 14:19:00,
2013-01-18 07:23:00,31.1,14.1,30.20,North,0,0.0,0.0,49,0.00,,,0.00,WUHU216HW,2013-01-18 14:23:00,
2013-01-18 07:24:00,31.1,14.1,30.20,North,0,0.0,0.0,49,0.00,,,0.00,WUHU216HW,2013-01-18 14:24:00,
2013-01-18 07:29:00,31.0,14.5,30.20,North,0,0.0,0.0,50,0.00,,,0.00,WUHU216HW,2013-01-18 14:29:00,
2013-01-18 07:30:00,31.0,14.5,30.20,North,0,0.0,0.0,50,0.00,,,0.00,WUHU216HW,2013-01-18 14:30:00,
2013-01-18 07:34:00,31.0,14.5,30.20,North,0,0.0,0.0,50,0.00,,,0.00,WUHU216HW,2013-01-18 14:34:00,
2013-01-18 07:35:00,31.0,14.5,30.20,North,0,0.0,0.0,50,0.00,,,0.00,WUHU216HW,2013-01-18 14:35:00,
2013-01-18 07:36:00,31.0,14.5,30.20,North,0,0.0,0.0,50,0.00,,,0.00,WUHU216HW,2013-01-18 14:36:00,
2013-01-18 07:39:00,30.8,14.3,30.20,North,0,0.0,0.0,50,0.00,,,0.00,WUHU216HW,2013-01-18 14:39:00,
2013-01-18 07:40:00,30.8,14.8,30.20,North,0,0.0,0.0,51,0.00,,,0.00,WUHU216HW,2013-01-18 14:40:00,
2013-01-18 07:41:00,30.8,14.8,30.20,North,0,0.0,0.0,51,0.00,,,0.00,WUHU216HW,2013-01-18 14:41:00,
2013-01-18 07:45:00,30.6,14.6,30.20,North,0,0.0,0.0,51,0.00,,,0.00,WUHU216HW,2013-01-18 14:45:00,
2013-01-18 07:46:00,30.6,14.6,30.20,North,0,0.0,0.0,51,0.00,,,0.00,WUHU216HW,2013-01-18 14:46:00,
2013-01-18 07:50:00,30.8,14.8,30.20,North,0,0.0,0.0,51,0.00,,,0.00,WUHU216HW,2013-01-18 14:50:00,
2013-01-18 07:51:00,30.8,14.8,30.20,North,0,0.0,0.0,51,0.00,,,0.00,WUHU216HW,2013-01-18 14:51:00,
2013-01-18 07:52:00,31.0,15.0,30.21,North,0,0.0,0.0,51,0.00,,,0.00,WUHU216HW,2013-01-18 14:52:00,
2013-01-18 07:53:00,30.8,14.8,30.21,North,0,0.0,0.0,51,0.00,,,0.00,WUHU216HW,2013-01-18 14:53:00,
2013-01-18 07:56:00,31.0,15.0,30.20,North,0,0.0,0.0,51,0.00,,,0.00,WUHU216HW,2013-01-18 14:56:00,
2013-01-18 07:58:00,31.0,15.0,30.21,North,0,0.0,0.0,51,0.00,,,0.00,WUHU216HW,2013-01-18 14:58:00,
2013-01-18 08:01:00,31.0,15.0,30.21,North,0,0.0,0.0,51,0.00,,,0.00,WUHU216HW,2013-01-18 15:01:00,
2013-01-18 08:02:00,31.0,15.0,30.20,North,0,0.0,0.0,51,0.00,,,0.00,WUHU216HW,2013-01-18 15:02:00,
2013-01-18 08:03:00,31.1,15.1,30.21,North,0,0.0,0.0,51,0.00,,,0.00,WUHU216HW,2013-01-18 15:03:00,
2013-01-18 08:04:00,31.1,15.1,30.20,North,0,0.0,0.0,51,0.00,,,0.00,WUHU216HW,2013-01-18 15:04:00,
2013-01-18 08:06:00,31.3,15.3,30.21,North,0,0.0,0.0,51,0.00,,,0.00,WUHU216HW,2013-01-18 15:06:00,
2013-01-18 08:07:00,31.3,15.3,30.21,North,0,0.0,0.0,51,0.00,,,0.00,WUHU216HW,2013-01-18 15:07:00,
2013-01-18 08:09:00,31.5,15.4,30.21,North,0,0.0,0.0,51,0.00,,,0.00,WUHU216HW,2013-01-18 15:09:00,
2013-01-18 08:10:00,31.3,15.3,30.21,North,0,0.0,0.0,51,0.00,,,0.00,WUHU216HW,2013-01-18 15:10:00,
2013-01-18 08:12:00,31.7,15.6,30.21,North,0,0.0,0.0,51,0.00,,,0.00,WUHU216HW,2013-01-18 15:12:00,
2013-01-18 08:13:00,31.7,15.6,30.21,North,0,0.0,0.0,51,0.00,,,0.00,WUHU216HW,2013-01-18 15:13:00,
2013-01-18 08:15:00,31.7,15.6,30.21,North,0,0.0,0.0,51,0.00,,,0.00,WUHU216HW,2013-01-18 15:15:00,
2013-01-18 08:16:00,31.7,15.6,30.21,North,0,0.0,0.0,51,0.00,,,0.00,WUHU216HW,2013-01-18 15:16:00,
2013-01-18 08:19:00,32.0,15.9,30.21,North,0,0.0,0.0,51,0.00,,,0.00,WUHU216HW,2013-01-18 15:19:00,
2013-01-18 08:20:00,32.0,15.5,30.21,North,0,0.0,0.0,50,0.00,,,0.00,WUHU216HW,2013-01-18 15:20:00,
2013-01-18 08:21:00,32.0,15.5,30.21,North,0,0.0,0.0,50,0.00,,,0.00,WUHU216HW,2013-01-18 15:21:00,
2013-01-18 08:24:00,32.2,15.7,30.21,North,0,0.0,0.0,50,0.00,,,0.00,WUHU216HW,2013-01-18 15:24:00,
2013-01-18 08:26:00,32.4,15.9,30.21,North,0,0.0,0.0,50,0.00,,,0.00,WUHU216HW,2013-01-18 15:26:00,
2013-01-18 08:29:00,32.6,15.9,30.21,North,0,0.0,0.0,50,0.00,,,0.00,WUHU216HW,2013-01-18 15:29:00,
2013-01-18 08:31:00,32.8,16.1,30.21,North,0,0.0,0.0,50,0.00,,,0.00,WUHU216HW,2013-01-18 15:31:00,
2013-01-18 08:32:00,32.8,16.1,30.21,North,0,0.0,0.0,50,0.00,,,0.00,WUHU216HW,2013-01-18 15:32:00,
2013-01-18 08:34:00,32.9,16.3,30.21,North,0,0.0,0.0,50,0.00,,,0.00,WUHU216HW,2013-01-18 15:34:00,
2013-01-18 08:35:00,32.9,16.3,30.21,North,0,0.0,0.0,50,0.00,,,0.00,WUHU216HW,2013-01-18 15:35:00,
2013-01-18 08:37:00,33.1,15.9,30.21,North,0,0.0,0.0,49,0.00,,,0.00,WUHU216HW,2013-01-18 15:37:00,
2013-01-18 08:39:00,33.3,16.1,30.22,North,0,0.0,0.0,49,0.00,,,0.00,WUHU216HW,2013-01-18 15:39:00,
2013-01-18 08:41:00,33.5,16.3,30.22,North,0,0.0,0.0,49,0.00,,,0.00,WUHU216HW,2013-01-18 15:41:00,
2013-01-18 08:42:00,33.5,16.3,30.22,North,0,0.0,0.0,49,0.00,,,0.00,WUHU216HW,2013-01-18 15:42:00,
2013-01-18 08:44:00,33.5,16.3,30.22,North,0,0.0,0.0,49,0.00,,,0.00,WUHU216HW,2013-01-18 15:44:00,
2013-01-18 08:46:00,33.7,16.5,30.22,North,0,0.0,0.0,49,0.00,,,0.00,WUHU216HW,2013-01-18 15:46:00,
2013-01-18 08:47:00,33.8,16.6,30.22,North,0,0.0,0.0,49,0.00,,,0.00,WUHU216HW,2013-01-18 15:47:00,
2013-01-18 08:48:00,33.8,16.6,30.22,North,0,0.0,0.0,49,0.00,,,0.00,WUHU216HW,2013-01-18 15:48:00,
2013-01-18 08:50:00,34.0,16.7,30.22,North,0,0.0,0.0,49,0.00,,,0.00,WUHU216HW,2013-01-18 15:50:00,
2013-01-18 08:51:00,34.0,16.7,30.22,North,0,0.0,0.0,49,0.00,,,0.00,WUHU216HW,2013-01-18 15:51:00,
2013-01-18 08:52:00,34.2,16.9,30.22,North,0,0.0,0.0,49,0.00,,,0.00,WUHU216HW,2013-01-18 15:52:00,
2013-01-18 08:53:00,34.2,16.9,30.22,North,0,0.0,0.0,49,0.00,,,0.00,WUHU216HW,2013-01-18 15:53:00,
2013-01-18 08:56:00,34.4,16.7,30.22,North,0,0.0,0.0,48,0.00,,,0.00,WUHU216HW,2013-01-18 15:56:00,
2013-01-18 08:58:00,34.6,16.8,30.22,North,0,0.0,0.0,48,0.00,,,0.00,WUHU216HW,2013-01-18 15:58:00,
2013-01-18 08:59:00,34.6,16.8,30.22,North,0,0.0,0.0,48,0.00,,,0.00,WUHU216HW,2013-01-18 15:59:00,
2013-01-18 09:02:00,34.9,17.2,30.22,North,0,0.0,0.0,48,0.00,,,0.00,WUHU216HW,2013-01-18 16:02:00,
2013-01-18 09:03:00,35.1,17.4,30.22,North,0,0.0,0.0,48,0.00,,,0.00,WUHU216HW,2013-01-18 16:03:00,
2013-01-18 09:06:00,35.3,17.0,30.22,North,0,0.0,0.0,47,0.00,,,0.00,WUHU216HW,2013-01-18 16:06:00,
2013-01-18 09:07:00,35.3,17.0,30.22,North,0,0.0,0.0,47,0.00,,,0.00,WUHU216HW,2013-01-18 16:07:00,
2013-01-18 09:08:00,35.5,17.2,30.22,North,0,0.0,0.0,47,0.00,,,0.00,WUHU216HW,2013-01-18 16:08:00,
2013-01-18 09:12:00,36.0,17.6,30.22,North,0,0.0,0.0,47,0.00,,,0.00,WUHU216HW,2013-01-18 16:12:00,
2013-01-18 09:13:00,36.2,17.3,30.22,North,0,0.0,0.0,46,0.00,,,0.00,WUHU216HW,2013-01-18 16:13:00,
2013-01-18 09:17:00,36.4,17.5,30.22,North,0,0.0,0.0,46,0.00,,,0.00,WUHU216HW,2013-01-18 16:17:00,
2013-01-18 09:18:00,36.5,17.7,30.22,North,0,0.0,0.0,46,0.00,,,0.00,WUHU216HW,2013-01-18 16:18:00,
2013-01-18 09:19:00,36.7,17.8,30.22,North,0,0.0,0.0,46,0.00,,,0.00,WUHU216HW,2013-01-18 16:19:00,
2013-01-18 09:23:00,37.1,17.6,30.22,North,0,0.0,0.0,45,0.00,,,0.00,WUHU216HW,2013-01-18 16:23:00,
2013-01-18 09:24:00,37.1,17.6,30.22,North,0,0.0,0.0,45,0.00,,,0.00,WUHU216HW,2013-01-18 16:24:00,
2013-01-18 09:29:00,37.6,18.1,30.22,North,0,0.0,0.0,45,0.00,,,0.00,WUHU216HW,2013-01-18 16:29:00,
2013-01-18 09:30:00,37.8,18.3,30.22,North,0,0.0,0.0,45,0.00,,,0.00,WUHU216HW,2013-01-18 16:30:00,
2013-01-18 09:34:00,38.0,18.4,30.22,North,0,0.0,0.0,45,0.00,,,0.00,WUHU216HW,2013-01-18 16:34:00,
2013-01-18 09:35:00,38.2,18.5,30.22,North,0,0.0,0.0,45,0.00,,,0.00,WUHU216HW,2013-01-18 16:35:00,
2013-01-18 09:36:00,38.3,18.7,30.22,North,0,0.0,0.0,45,0.00,,,0.00,WUHU216HW,2013-01-18 16:36:00,
2013-01-18 09:40:00,39.1,19.4,30.22,North,0,0.0,0.0,45,0.00,,,0.00,WUHU216HW,2013-01-18 16:40:00,
2013-01-18 09:41:00,39.2,19.5,30.22,North,0,0.0,0.0,45,0.00,,,0.00,WUHU216HW,2013-01-18 16:41:00,
2013-01-18 09:42:00,39.2,19.0,30.22,North,0,0.0,0.0,44,0.00,,,0.00,WUHU216HW,2013-01-18 16:42:00,
2013-01-18 09:46:00,40.0,19.6,30.22,North,0,0.0,0.0,44,0.00,,,0.00,WUHU216HW,2013-01-18 16:46:00,
2013-01-18 09:47:00,40.1,19.3,30.22,North,0,0.0,0.0,43,0.00,,,0.00,WUHU216HW,2013-01-18 16:47:00,
2013-01-18 09:51:00,40.7,19.8,30.22,North,0,0.0,0.0,43,0.00,,,0.00,WUHU216HW,2013-01-18 16:51:00,
2013-01-18 09:52:00,40.7,19.8,30.22,North,0,0.0,0.0,43,0.00,,,0.00,WUHU216HW,2013-01-18 16:52:00,
2013-01-18 09:56:00,41.2,19.7,30.22,North,0,0.0,0.0,42,0.00,,,0.00,WUHU216HW,2013-01-18 16:56:00,
2013-01-18 09:58:00,41.4,19.4,30.22,North,0,0.0,0.0,41,0.00,,,0.00,WUHU216HW,2013-01-18 16:58:00,
2013-01-18 10:02:00,41.8,19.7,30.22,North,0,0.0,0.0,41,0.00,,,0.00,WUHU216HW,2013-01-18 17:02:00,
2013-01-18 10:03:00,41.9,19.4,30.22,North,0,0.0,0.0,40,0.00,,,0.00,WUHU216HW,2013-01-18 17:03:00,
2013-01-18 10:04:00,41.9,19.4,30.22,North,0,0.0,0.0,40,0.00,,,0.00,WUHU216HW,2013-01-18 17:04:00,
2013-01-18 10:08:00,42.3,19.7,30.22,North,0,0.0,0.0,40,0.00,,,0.00,WUHU216HW,2013-01-18 17:08:00,
2013-01-18 10:09:00,42.3,19.7,30.22,North,0,0.0,0.0,40,0.00,,,0.00,WUHU216HW,2013-01-18 17:09:00,
2013-01-18 10:10:00,42.7,20.0,30.22,North,0,0.0,0.0,40,0.00,,,0.00,WUHU216HW,2013-01-18 17:10:00,
2013-01-18 10:13:00,42.8,19.5,30.22,North,0,0.0,0.0,39,0.00,,,0.00,WUHU216HW,2013-01-18 17:13:00,
2013-01-18 10:14:00,43.0,19.6,30.22,North,0,0.0,0.0,39,0.00,,,0.00,WUHU216HW,2013-01-18 17:14:00,
2013-01-18 10:16:00,43.2,19.8,30.22,North,0,0.0,0.0,39,0.00,,,0.00,WUHU216HW,2013-01-18 17:16:00,
2013-01-18 10:18:00,43.4,20.0,30.22,North,0,0.0,0.0,39,0.00,,,0.00,WUHU216HW,2013-01-18 17:18:00,
2013-01-18 10:19:00,43.6,19.4,30.22,North,0,0.0,0.0,38,0.00,,,0.00,WUHU216HW,2013-01-18 17:19:00,
2013-01-18 10:22:00,43.9,19.8,30.22,North,0,0.0,0.0,38,0.00,,,0.00,WUHU216HW,2013-01-18 17:22:00,
2013-01-18 10:23:00,43.9,19.8,30.22,North,0,0.0,0.0,38,0.00,,,0.00,WUHU216HW,2013-01-18 17:23:00,
2013-01-18 10:24:00,44.1,20.0,30.22,North,0,0.0,0.0,38,0.00,,,0.00,WUHU216HW,2013-01-18 17:24:00,
2013-01-18 10:25:00,44.3,20.2,30.22,North,0,0.0,0.0,38,0.00,,,0.00,WUHU216HW,2013-01-18 17:25:00,
2013-01-18 10:27:00,44.5,20.3,30.22,North,0,0.0,0.0,38,0.00,,,0.00,WUHU216HW,2013-01-18 17:27:00,
2013-01-18 10:29:00,44.6,19.8,30.22,North,0,0.0,0.0,37,0.00,,,0.00,WUHU216HW,2013-01-18 17:29:00,
2013-01-18 10:30:00,44.6,19.8,30.22,North,0,0.0,0.0,37,0.00,,,0.00,WUHU216HW,2013-01-18 17:30:00,
2013-01-18 10:32:00,45.0,20.1,30.22,North,0,0.0,0.0,37,0.00,,,0.00,WUHU216HW,2013-01-18 17:32:00,
2013-01-18 10:33:00,45.0,20.1,30.22,North,0,0.0,0.0,37,0.00,,,0.00,WUHU216HW,2013-01-18 17:33:00,
2013-01-18 10:34:00,45.2,20.3,30.22,North,0,0.0,0.0,37,0.00,,,0.00,WUHU216HW,2013-01-18 17:34:00,
2013-01-18 10:35:00,45.4,20.4,30.22,North,0,0.0,0.0,37,0.00,,,0.00,WUHU216HW,2013-01-18 17:35:00,
2013-01-18 10:38:00,45.7,20.8,30.22,North,0,0.0,0.0,37,0.00,,,0.00,WUHU216HW,2013-01-18 17:38:00,
2013-01-18 10:39:00,45.9,20.3,30.22,North,0,0.0,0.0,36,0.00,,,0.00,WUHU216HW,2013-01-18 17:39:00,
2013-01-18 10:40:00,46.1,20.4,30.22,North,0,0.0,0.0,36,0.00,,,0.00,WUHU216HW,2013-01-18 17:40:00,
2013-01-18 10:43:00,46.6,20.9,30.22,North,0,0.0,0.0,36,0.00,,,0.00,WUHU216HW,2013-01-18 17:43:00,
2013-01-18 10:44:00,46.8,21.1,30.22,North,0,0.0,0.0,36,0.00,,,0.00,WUHU216HW,2013-01-18 17:44:00,
2013-01-18 10:45:00,46.8,21.1,30.22,North,0,0.0,0.0,36,0.00,,,0.00,WUHU216HW,2013-01-18 17:45:00,
2013-01-18 10:48:00,47.5,21.7,30.22,North,0,0.0,0.0,36,0.00,,,0.00,WUHU216HW,2013-01-18 17:48:00,
2013-01-18 10:50:00,47.5,21.7,30.21,North,0,0.0,0.0,36,0.00,,,0.00,WUHU216HW,2013-01-18 17:50:00,
2013-01-18 10:51:00,47.9,22.1,30.21,North,0,0.0,0.0,36,0.00,,,0.00,WUHU216HW,2013-01-18 17:51:00,
2013-01-18 10:54:00,48.1,20.9,30.21,North,0,0.0,0.0,34,0.00,,,0.00,WUHU216HW,2013-01-18 17:54:00,
2013-01-18 10:55:00,48.1,20.9,30.21,North,0,0.0,0.0,34,0.00,,,0.00,WUHU216HW,2013-01-18 17:55:00,
2013-01-18 10:56:00,48.2,21.1,30.21,North,0,0.0,0.0,34,0.00,,,0.00,WUHU216HW,2013-01-18 17:56:00,
2013-01-18 10:59:00,48.2,20.3,30.21,North,0,0.0,0.0,33,0.00,,,0.00,WUHU216HW,2013-01-18 17:59:00,
2013-01-18 11:00:00,48.1,20.2,30.21,North,0,0.0,0.0,33,0.00,,,0.00,WUHU216HW,2013-01-18 18:00:00,
2013-01-18 11:02:00,48.1,20.2,30.21,North,0,0.0,0.0,33,0.00,,,0.00,WUHU216HW,2013-01-18 18:02:00,
2013-01-18 11:05:00,48.4,20.5,30.20,North,0,0.0,0.0,33,0.00,,,0.00,WUHU216HW,2013-01-18 18:05:00,
2013-01-18 11:07:00,48.6,20.7,30.20,North,0,0.0,0.0,33,0.00,,,0.00,WUHU216HW,2013-01-18 18:07:00,
2013-01-18 11:10:00,48.8,20.8,30.20,North,0,0.0,0.0,33,0.00,,,0.00,WUHU216HW,2013-01-18 18:10:00,
2013-01-18 11:12:00,49.0,21.0,30.20,North,0,0.0,0.0,33,0.00,,,0.00,WUHU216HW,2013-01-18 18:12:00,
2013-01-18 11:13:00,49.0,21.0,30.20,North,0,0.0,0.0,33,0.00,,,0.00,WUHU216HW,2013-01-18 18:13:00,
2013-01-18 11:15:00,49.3,21.2,30.20,North,0,0.0,0.0,33,0.00,,,0.00,WUHU216HW,2013-01-18 18:15:00,
2013-01-18 11:16:00,49.3,21.2,30.20,North,0,0.0,0.0,33,0.00,,,0.00,WUHU216HW,2013-01-18 18:16:00,
2013-01-18 11:18:00,49.5,20.7,30.20,North,0,0.0,0.0,32,0.00,,,0.00,WUHU216HW,2013-01-18 18:18:00,
2013-01-18 11:20:00,49.7,20.9,30.19,North,0,0.0,0.0,32,0.00,,,0.00,WUHU216HW,2013-01-18 18:20:00,
2013-01-18 11:21:00,49.9,21.1,30.19,North,0,0.0,0.0,32,0.00,,,0.00,WUHU216HW,2013-01-18 18:21:00,
2013-01-18 11:23:00,49.9,21.1,30.19,North,0,0.0,0.0,32,0.00,,,0.00,WUHU216HW,2013-01-18 18:23:00,
2013-01-18 11:25:00,50.0,21.2,30.19,North,0,0.0,0.0,32,0.00,,,0.00,WUHU216HW,2013-01-18 18:25:00,
2013-01-18 11:26:00,50.0,21.2,30.19,North,0,0.0,0.0,32,0.00,,,0.00,WUHU216HW,2013-01-18 18:26:00,
2013-01-18 11:28:00,50.2,21.3,30.19,North,0,0.0,0.0,32,0.00,,,0.00,WUHU216HW,2013-01-18 18:28:00,
2013-01-18 11:31:00,50.4,20.8,30.19,North,0,0.0,0.0,31,0.00,,,0.00,WUHU216HW,2013-01-18 18:31:00,
2013-01-18 11:33:00,50.8,21.2,30.19,North,0,0.0,0.0,31,0.00,,,0.00,WUHU216HW,2013-01-18 18:33:00,
2013-01-18 11:34:00,50.6,21.0,30.19,North,0,0.0,0.0,31,0.00,,,0.00,WUHU216HW,2013-01-18 18:34:00,
2013-01-18 11:36:00,50.8,21.2,30.19,North,0,0.0,0.0,31,0.00,,,0.00,WUHU216HW,2013-01-18 18:36:00,
2013-01-18 11:37:00,50.8,21.2,30.18,North,0,0.0,0.0,31,0.00,,,0.00,WUHU216HW,2013-01-18 18:37:00,
2013-01-18 11:39:00,50.8,21.2,30.18,North,0,0.0,0.0,31,0.00,,,0.00,WUHU216HW,2013-01-18 18:39:00,
2013-01-18 11:42:00,51.3,21.6,30.18,North,0,0.0,0.0,31,0.00,,,0.00,WUHU216HW,2013-01-18 18:42:00,
2013-01-18 11:45:00,51.3,21.0,30.18,North,0,0.0,0.0,30,0.00,,,0.00,WUHU216HW,2013-01-18 18:45:00,
2013-01-18 11:47:00,51.5,21.1,30.18,North,0,0.0,0.0,30,0.00,,,0.00,WUHU216HW,2013-01-18 18:47:00,
2013-01-18 11:48:00,51.5,21.1,30.17,North,0,0.0,0.0,30,0.00,,,0.00,WUHU216HW,2013-01-18 18:48:00,
2013-01-18 11:50:00,51.7,21.2,30.17,North,0,0.0,0.0,30,0.00,,,0.00,WUHU216HW,2013-01-18 18:50:00,
2013-01-18 11:51:00,51.8,20.5,30.17,North,0,0.0,0.0,29,0.00,,,0.00,WUHU216HW,2013-01-18 18:51:00,
2013-01-18 11:52:00,51.8,20.5,30.17,North,0,0.0,0.0,29,0.00,,,0.00,WUHU216HW,2013-01-18 18:52:00,
2013-01-18 11:53:00,51.8,20.5,30.17,North,0,0.0,0.0,29,0.00,,,0.00,WUHU216HW,2013-01-18 18:53:00,
2013-01-18 11:55:00,51.8,20.5,30.17,North,0,0.0,0.0,29,0.00,,,0.00,WUHU216HW,2013-01-18 18:55:00,
2013-01-18 11:57:00,52.0,20.6,30.17,North,0,0.0,0.0,29,0.00,,,0.00,WUHU216HW,2013-01-18 18:57:00,
2013-01-18 11:58:00,52.0,21.6,30.17,North,0,0.0,0.0,30,0.00,,,0.00,WUHU216HW,2013-01-18 18:58:00,
2013-01-18 12:01:00,52.2,21.8,30.17,North,0,0.0,0.0,30,0.00,,,0.00,WUHU216HW,2013-01-18 19:01:00,
2013-01-18 12:02:00,52.2,21.8,30.17,North,0,0.0,0.0,30,0.00,,,0.00,WUHU216HW,2013-01-18 19:02:00,
2013-01-18 12:03:00,52.4,21.0,30.17,North,0,0.0,0.0,29,0.00,,,0.00,WUHU216HW,2013-01-18 19:03:00,
2013-01-18 12:04:00,52.4,21.0,30.17,North,0,0.0,0.0,29,0.00,,,0.00,WUHU216HW,2013-01-18 19:04:00,
2013-01-18 12:06:00,52.9,21.4,30.16,North,0,0.0,0.0,29,0.00,,,0.00,WUHU216HW,2013-01-18 19:06:00,
2013-01-18 12:08:00,53.3,21.8,30.16,North,0,0.0,0.0,29,0.00,,,0.00,WUHU216HW,2013-01-18 19:08:00,
2013-01-18 12:09:00,53.5,22.0,30.16,North,0,0.0,0.0,29,0.00,,,0.00,WUHU216HW,2013-01-18 19:09:00,
2013-01-18 12:11:00,53.6,21.2,30.16,North,0,0.0,0.0,28,0.00,,,0.00,WUHU216HW,2013-01-18 19:11:00,
2013-01-18 12:13:00,53.6,21.2,30.16,North,0,0.0,0.0,28,0.00,,,0.00,WUHU216HW,2013-01-18 19:13:00,
2013-01-18 12:14:00,53.6,21.2,30.16,North,0,0.0,0.0,28,0.00,,,0.00,WUHU216HW,2013-01-18 19:14:00,
2013-01-18 12:16:00,53.6,21.2,30.15,North,0,0.0,0.0,28,0.00,,,0.00,WUHU216HW,2013-01-18 19:16:00,
2013-01-18 12:18:00,53.8,20.4,30.15,North,0,0.0,0.0,27,0.00,,,0.00,WUHU216HW,2013-01-18 19:18:00,
2013-01-18 12:19:00,54.0,21.4,30.15,North,0,0.0,0.0,28,0.00,,,0.00,WUHU216HW,2013-01-18 19:19:00,
2013-01-18 12:21:00,54.0,21.4,30.15,North,0,0.0,0.0,28,0.00,,,0.00,WUHU216HW,2013-01-18 19:21:00,
2013-01-18 12:23:00,54.2,20.6,30.15,North,0,0.0,0.0,27,0.00,,,0.00,WUHU216HW,2013-01-18 19:23:00,
2013-01-18 12:25:00,54.2,20.6,30.15,North,0,0.0,0.0,27,0.00,,,0.00,WUHU216HW,2013-01-18 19:25:00,
2013-01-18 12:27:00,54.4,20.8,30.15,North,0,0.0,0.0,27,0.00,,,0.00,WUHU216HW,2013-01-18 19:27:00,
2013-01-18 12:28:00,54.4,21.7,30.14,North,0,0.0,0.0,28,0.00,,,0.00,WUHU216HW,2013-01-18 19:28:00,
2013-01-18 12:30:00,54.4,20.8,30.14,North,0,0.0,0.0,27,0.00,,,0.00,WUHU216HW,2013-01-18 19:30:00,
2013-01-18 12:31:00,54.4,20.8,30.14,North,0,0.0,0.0,27,0.00,,,0.00,WUHU216HW,2013-01-18 19:31:00,
2013-01-18 12:32:00,54.4,20.8,30.14,North,0,0.0,0.0,27,0.00,,,0.00,WUHU216HW,2013-01-18 19:32:00,
2013-01-18 12:34:00,54.4,18.9,30.14,North,0,0.0,0.0,25,0.00,,,0.00,WUHU216HW,2013-01-18 19:34:00,
2013-01-18 12:35:00,54.4,18.9,30.14,North,0,0.0,0.0,25,0.00,,,0.00,WUHU216HW,2013-01-18 19:35:00,
2013-01-18 12:36:00,54.4,19.8,30.14,North,0,0.0,0.0,26,0.00,,,0.00,WUHU216HW,2013-01-18 19:36:00,
2013-01-18 12:37:00,54.4,20.8,30.14,North,0,0.0,0.0,27,0.00,,,0.00,WUHU216HW,2013-01-18 19:37:00,
2013-01-18 12:40:00,54.4,20.8,30.14,North,0,0.0,0.0,27,0.00,,,0.00,WUHU216HW,2013-01-18 19:40:00,
2013-01-18 12:41:00,54.4,20.8,30.13,North,0,0.0,0.0,27,0.00,,,0.00,WUHU216HW,2013-01-18 19:41:00,
2013-01-18 12:44:00,54.5,21.0,30.13,North,0,0.0,0.0,27,0.00,,,0.00,WUHU216HW,2013-01-18 19:44:00,
2013-01-18 12:46:00,54.7,21.1,30.13,North,0,0.0,0.0,27,0.00,,,0.00,WUHU216HW,2013-01-18 19:46:00,
2013-01-18 12:47:00,54.7,21.1,30.13,North,0,0.0,0.0,27,0.00,,,0.00,WUHU216HW,2013-01-18 19:47:00,
2013-01-18 12:50:00,54.7,21.1,30.12,North,0,0.0,0.0,27,0.00,,,0.00,WUHU216HW,2013-01-18 19:50:00,
2013-01-18 12:52:00,54.9,19.4,30.12,North,0,0.0,0.0,25,0.00,,,0.00,WUHU216HW,2013-01-18 19:52:00,
2013-01-18 12:53:00,54.9,20.3,30.12,North,0,0.0,0.0,26,0.00,,,0.00,WUHU216HW,2013-01-18 19:53:00,
2013-01-18 12:56:00,55.1,19.5,30.12,North,0,0.0,0.0,25,0.00,,,0.00,WUHU216HW,2013-01-18 19:56:00,
2013-01-18 12:57:00,55.1,19.5,30.12,North,0,0.0,0.0,25,0.00,,,0.00,WUHU216HW,2013-01-18 19:57:00,
2013-01-18 12:58:00,55.3,19.6,30.12,North,0,0.0,0.0,25,0.00,,,0.00,WUHU216HW,2013-01-18 19:58:00,
2013-01-18 13:00:00,55.4,19.8,30.12,North,0,0.0,0.0,25,0.00,,,0.00,WUHU216HW,2013-01-18 20:00:00,
2013-01-18 13:01:00,55.4,19.8,30.12,North,0,0.0,0.0,25,0.00,,,0.00,WUHU216HW,2013-01-18 20:01:00,
2013-01-18 13:03:00,55.8,20.1,30.12,North,0,0.0,0.0,25,0.00,,,0.00,WUHU216HW,2013-01-18 20:03:00,
2013-01-18 13:05:00,55.8,20.1,30.12,North,0,0.0,0.0,25,0.00,,,0.00,WUHU216HW,2013-01-18 20:05:00,
2013-01-18 13:06:00,55.8,20.1,30.11,North,0,0.0,0.0,25,0.00,,,0.00,WUHU216HW,2013-01-18 20:06:00,
2013-01-18 13:07:00,55.8,20.1,30.11,North,0,0.0,0.0,25,0.00,,,0.00,WUHU216HW,2013-01-18 20:07:00,
2013-01-18 13:08:00,55.8,20.1,30.11,North,0,0.0,0.0,25,0.00,,,0.00,WUHU216HW,2013-01-18 20:08:00,
2013-01-18 13:10:00,55.8,20.1,30.11,North,0,0.0,0.0,25,0.00,,,0.00,WUHU216HW,2013-01-18 20:10:00,
2013-01-18 13:12:00,56.0,20.3,30.11,North,0,0.0,0.0,25,0.00,,,0.00,WUHU216HW,2013-01-18 20:12:00,
2013-01-18 13:14:00,56.0,20.3,30.11,North,0,0.0,0.0,25,0.00,,,0.00,WUHU216HW,2013-01-18 20:14:00,
2013-01-18 13:16:00,56.0,20.3,30.11,North,0,0.0,0.0,25,0.00,,,0.00,WUHU216HW,2013-01-18 20:16:00,
2013-01-18 13:17:00,56.2,20.4,30.11,North,0,0.0,0.0,25,0.00,,,0.00,WUHU216HW,2013-01-18 20:17:00,
2013-01-18 13:18:00,56.2,20.4,30.11,North,0,0.0,0.0,25,0.00,,,0.00,WUHU216HW,2013-01-18 20:18:00,
2013-01-18 13:20:00,56.2,19.4,30.11,North,0,0.0,0.0,24,0.00,,,0.00,WUHU216HW,2013-01-18 20:20:00,
2013-01-18 13:23:00,56.2,19.4,30.11,North,0,0.0,0.0,24,0.00,,,0.00,WUHU216HW,2013-01-18 20:23:00,
2013-01-18 13:24:00,56.3,20.5,30.11,North,0,0.0,0.0,25,0.00,,,0.00,WUHU216HW,2013-01-18 20:24:00,
2013-01-18 13:25:00,56.5,20.7,30.10,North,0,0.0,0.0,25,0.00,,,0.00,WUHU216HW,2013-01-18 20:25:00,
2013-01-18 13:28:00,56.5,20.7,30.10,North,0,0.0,0.0,25,0.00,,,0.00,WUHU216HW,2013-01-18 20:28:00,
2013-01-18 13:29:00,56.5,20.7,30.10,North,0,0.0,0.0,25,0.00,,,0.00,WUHU216HW,2013-01-18 20:29:00,
2013-01-18 13:30:00,56.7,20.9,30.10,North,0,0.0,0.0,25,0.00,,,0.00,WUHU216HW,2013-01-18 20:30:00,
2013-01-18 13:31:00,56.7,19.9,30.10,North,0,0.0,0.0,24,0.00,,,0.00,WUHU216HW,2013-01-18 20:31:00,
2013-01-18 13:33:00,56.9,21.1,30.10,North,0,0.0,0.0,25,0.00,,,0.00,WUHU216HW,2013-01-18 20:33:00,
2013-01-18 13:35:00,57.2,21.3,30.10,North,0,0.0,0.0,25,0.00,,,0.00,WUHU216HW,2013-01-18 20:35:00,
2013-01-18 13:36:00,57.2,20.3,30.10,North,0,0.0,0.0,24,0.00,,,0.00,WUHU216HW,2013-01-18 20:36:00,
2013-01-18 13:38:00,57.4,20.5,30.10,North,0,0.0,0.0,24,0.00,,,0.00,WUHU216HW,2013-01-18 20:38:00,
2013-01-18 13:39:00,57.6,20.7,30.10,North,0,0.0,0.0,24,0.00,,,0.00,WUHU216HW,2013-01-18 20:39:00,
2013-01-18 13:41:00,57.6,20.7,30.10,North,0,0.0,0.0,24,0.00,,,0.00,WUHU216HW,2013-01-18 20:41:00,
2013-01-18 13:43:00,57.8,20.8,30.09,North,0,0.0,0.0,24,0.00,,,0.00,WUHU216HW,2013-01-18 20:43:00,
2013-01-18 13:46:00,57.8,20.8,30.09,North,0,0.0,0.0,24,0.00,,,0.00,WUHU216HW,2013-01-18 20:46:00,
2013-01-18 13:49:00,58.0,21.0,30.09,North,0,0.0,0.0,24,0.00,,,0.00,WUHU216HW,2013-01-18 20:49:00,
2013-01-18 13:51:00,58.0,21.0,30.09,North,0,0.0,0.0,24,0.00,,,0.00,WUHU216HW,2013-01-18 20:51:00,
2013-01-18 13:53:00,58.0,21.0,30.09,North,0,0.0,0.0,24,0.00,,,0.00,WUHU216HW,2013-01-18 20:53:00,
2013-01-18 13:55:00,58.1,21.2,30.09,North,0,0.0,0.0,24,0.00,,,0.00,WUHU216HW,2013-01-18 20:55:00,
2013-01-18 13:56:00,58.1,21.2,30.09,North,0,0.0,0.0,24,0.00,,,0.00,WUHU216HW,2013-01-18 20:56:00,
2013-01-18 13:57:00,58.1,21.2,30.09,North,0,0.0,0.0,24,0.00,,,0.00,WUHU216HW,2013-01-18 20:57:00,
2013-01-18 13:58:00,58.1,21.2,30.09,North,0,0.0,0.0,24,0.00,,,0.00,WUHU216HW,2013-01-18 20:58:00,
2013-01-18 14:01:00,58.1,20.2,30.09,North,0,0.0,0.0,23,0.00,,,0.00,WUHU216HW,2013-01-18 21:01:00,
2013-01-18 14:02:00,58.1,20.2,30.09,North,0,0.0,0.0,23,0.00,,,0.00,WUHU216HW,2013-01-18 21:02:00,
2013-01-18 14:04:00,58.1,20.2,30.09,North,0,0.0,0.0,23,0.00,,,0.00,WUHU216HW,2013-01-18 21:04:00,
2013-01-18 14:06:00,58.3,20.4,30.09,North,0,0.0,0.0,23,0.00,,,0.00,WUHU216HW,2013-01-18 21:06:00,
2013-01-18 14:07:00,58.3,21.2,30.09,North,0,0.0,0.0,24,0.00,,,0.00,WUHU216HW,2013-01-18 21:07:00,
2013-01-18 14:08:00,58.3,20.4,30.09,North,0,0.0,0.0,23,0.00,,,0.00,WUHU216HW,2013-01-18 21:08:00,
2013-01-18 14:09:00,58.3,20.4,30.09,North,0,0.0,0.0,23,0.00,,,0.00,WUHU216HW,2013-01-18 21:09:00,
2013-01-18 14:11:00,58.3,20.4,30.09,North,0,0.0,0.0,23,0.00,,,0.00,WUHU216HW,2013-01-18 21:11:00,
2013-01-18 14:12:00,58.3,20.4,30.09,North,0,0.0,0.0,23,0.00,,,0.00,WUHU216HW,2013-01-18 21:12:00,
2013-01-18 14:13:00,58.3,19.4,30.09,North,0,0.0,0.0,22,0.00,,,0.00,WUHU216HW,2013-01-18 21:13:00,
2013-01-18 14:14:00,58.3,20.4,30.09,North,0,0.0,0.0,23,0.00,,,0.00,WUHU216HW,2013-01-18 21:14:00,
2013-01-18 14:17:00,58.3,20.4,30.09,North,0,0.0,0.0,23,0.00,,,0.00,WUHU216HW,2013-01-18 21:17:00,
2013-01-18 14:18:00,58.3,20.4,30.09,North,0,0.0,0.0,23,0.00,,,0.00,WUHU216HW,2013-01-18 21:18:00,
2013-01-18 14:20:00,58.3,20.4,30.09,North,0,0.0,0.0,23,0.00,,,0.00,WUHU216HW,2013-01-18 21:20:00,
2013-01-18 14:23:00,58.3,20.4,30.09,North,0,0.0,0.0,23,0.00,,,0.00,WUHU216HW,2013-01-18 21:23:00,
2013-01-18 14:24:00,58.3,20.4,30.09,North,0,0.0,0.0,23,0.00,,,0.00,WUHU216HW,2013-01-18 21:24:00,
2013-01-18 14:26:00,58.3,20.4,30.09,North,0,0.0,0.0,23,0.00,,,0.00,WUHU216HW,2013-01-18 21:26:00,
2013-01-18 14:28:00,58.5,20.4,30.08,North,0,0.0,0.0,23,0.00,,,0.00,WUHU216HW,2013-01-18 21:28:00,
2013-01-18 14:29:00,58.3,20.4,30.08,North,0,0.0,0.0,23,0.00,,,0.00,WUHU216HW,2013-01-18 21:29:00,
2013-01-18 14:30:00,58.3,20.4,30.08,North,0,0.0,0.0,23,0.00,,,0.00,WUHU216HW,2013-01-18 21:30:00,
2013-01-18 14:31:00,58.5,20.4,30.08,North,0,0.0,0.0,23,0.00,,,0.00,WUHU216HW,2013-01-18 21:31:00,
2013-01-18 14:34:00,58.5,20.4,30.08,North,0,0.0,0.0,23,0.00,,,0.00,WUHU216HW,2013-01-18 21:34:00,
2013-01-18 14:35:00,58.7,19.6,30.08,North,0,0.0,0.0,22,0.00,,,0.00,WUHU216HW,2013-01-18 21:35:00,
2013-01-18 14:37:00,58.7,18.7,30.08,North,0,0.0,0.0,21,0.00,,,0.00,WUHU216HW,2013-01-18 21:37:00,
2013-01-18 14:39:00,58.7,19.6,30.08,North,0,0.0,0.0,22,0.00,,,0.00,WUHU216HW,2013-01-18 21:39:00,
2013-01-18 14:42:00,58.7,19.6,30.08,North,0,0.0,0.0,22,0.00,,,0.00,WUHU216HW,2013-01-18 21:42:00,
2013-01-18 14:45:00,58.9,19.8,30.08,North,0,0.0,0.0,22,0.00,,,0.00,WUHU216HW,2013-01-18 21:45:00,
2013-01-18 14:47:00,58.9,19.8,30.08,North,0,0.0,0.0,22,0.00,,,0.00,WUHU216HW,2013-01-18 21:47:00,
2013-01-18 14:50:00,58.7,19.6,30.08,North,0,0.0,0.0,22,0.00,,,0.00,WUHU216HW,2013-01-18 21:50:00,
2013-01-18 14:52:00,58.9,19.8,30.08,North,0,0.0,0.0,22,0.00,,,0.00,WUHU216HW,2013-01-18 21:52:00,
2013-01-18 14:53:00,58.7,19.6,30.08,North,0,0.0,0.0,22,0.00,,,0.00,WUHU216HW,2013-01-18 21:53:00,
2013-01-18 14:55:00,58.9,19.8,30.08,North,0,0.0,0.0,22,0.00,,,0.00,WUHU216HW,2013-01-18 21:55:00,
2013-01-18 14:56:00,58.9,19.8,30.08,North,0,0.0,0.0,22,0.00,,,0.00,WUHU216HW,2013-01-18 21:56:00,
2013-01-18 14:57:00,59.0,20.0,30.08,North,0,0.0,0.0,22,0.00,,,0.00,WUHU216HW,2013-01-18 21:57:00,
2013-01-18 14:58:00,59.0,20.0,30.08,North,0,0.0,0.0,22,0.00,,,0.00,WUHU216HW,2013-01-18 21:58:00,
2013-01-18 15:01:00,59.0,20.0,30.08,North,0,0.0,0.0,22,0.00,,,0.00,WUHU216HW,2013-01-18 22:01:00,
2013-01-18 15:03:00,59.0,20.0,30.08,North,0,0.0,0.0,22,0.00,,,0.00,WUHU216HW,2013-01-18 22:03:00,
2013-01-18 15:07:00,59.0,20.0,30.07,North,0,0.0,0.0,22,0.00,,,0.00,WUHU216HW,2013-01-18 22:07:00,